Location: Sabalos
(43.2860°N, 0.1414°E)
Time: 03:27:05
(UTC+00:00)

USA 215 - Pass Details

Date: 05 July 2020
Orbit: 1102 x 1106 km, 123.0° (Epoch: 31 July)

Event Time Altitude Azimuth Distance (km) Brightness Sun altitude
Rises 22:43:04 0° 48° (NE) 3,925 6.4 -21.5°
Reaches altitude 10° 22:45:37 10° 44° (NE) 2,965 5.8 -21.6°
Maximum altitude 22:51:53 51° 331° (NNW) 1,358 4.1 -22.0°
Drops below altitude 10° 22:58:09 10° 257° (WSW) 2,957 5.6 -22.3°
Sets 23:00:41 0° 253° (WSW) 3,913 6.1 -22.4°
